| time (UTC) | temp C | wind direction | speed KPH | gust KPH | rain 1hr cm | rain 24hr cm | rain mn cm | humidity % | barometer mb |
| 20260509191511 | 8 | 135 | 0.0 | 1.6 | 0.00 | 0.84 | 0.84 | 96 | 1010.0 |
| 20260509190011 | 8 | 160 | 0.0 | 0.0 | 0.00 | 0.84 | 0.84 | 96 | 1010.1 |
| 20260509184528 | 8 | 160 | 0.0 | 0.0 | 0.00 | 0.84 | 0.84 | 96 | 1010.2 |
| 20260509183009 | 8 | 277 | 0.0 | 4.8 | 0.00 | 0.84 | 0.84 | 96 | 1010.1 |
| 20260509181507 | 8 | 268 | 0.0 | 1.6 | 0.00 | 0.84 | 0.84 | 96 | 1010.2 |
| 20260509180006 | 8 | 225 | 0.0 | 1.6 | 0.00 | 0.84 | 0.84 | 96 | 1010.3 |
| 20260509174505 | 8 | 73 | 0.0 | 1.6 | 0.00 | 0.84 | 0.84 | 96 | 1010.1 |
| 20260509173003 | 8 | 83 | 0.0 | 4.8 | 0.00 | 0.84 | 0.84 | 96 | 1010.2 |
| 20260509171501 | 8 | 358 | 0.0 | 1.6 | 0.03 | 0.84 | 0.84 | 95 | 1010.6 |
| 20260509170107 | 8 | 37 | 0.0 | 3.2 | 0.05 | 0.84 | 0.84 | 95 | 1010.6 |
| 20260509164559 | 7 | 302 | 0.0 | 0.0 | 0.13 | 0.84 | 0.84 | 95 | 1010.8 |
| 20260509163059 | 7 | 302 | 0.0 | 1.6 | 0.18 | 0.84 | 0.84 | 95 | 1011.1 |
| 20260509161552 | 7 | 240 | 0.0 | 1.6 | 0.20 | 0.81 | 0.81 | 95 | 1011.3 |
| 20260509160050 | 7 | 240 | 0.0 | 1.6 | 0.25 | 0.79 | 0.79 | 95 | 1011.5 |
| 20260509154549 | 7 | 327 | 0.0 | 3.2 | 0.25 | 0.71 | 0.71 | 95 | 1011.8 |
| 20260509153056 | 7 | 242 | 0.0 | 1.6 | 0.28 | 0.66 | 0.66 | 94 | 1011.9 |
| 20260509151546 | 6 | 236 | 0.0 | 3.2 | 0.28 | 0.61 | 0.61 | 94 | 1012.0 |
| 20260509150044 | 6 | 242 | 0.0 | 1.6 | 0.25 | 0.53 | 0.53 | 94 | 1012.1 |
| 20260509144542 | 6 | 165 | 0.0 | 1.6 | 0.20 | 0.46 | 0.46 | 93 | 1012.2 |
| 20260509143041 | 6 | 169 | 1.6 | 3.2 | 0.18 | 0.38 | 0.38 | 93 | 1012.4 |
| 20260509141540 | 6 | 235 | 0.0 | 1.6 | 0.15 | 0.33 | 0.33 | 92 | 1012.4 |
| 20260509140037 | 6 | 207 | 0.0 | 1.6 | 0.13 | 0.28 | 0.28 | 93 | 1012.2 |
| 20260509134535 | 6 | 207 | 0.0 | 0.0 | 0.15 | 0.25 | 0.25 | 93 | 1012.4 |
| 20260509133033 | 6 | 79 | 0.0 | 1.6 | 0.13 | 0.20 | 0.20 | 92 | 1012.3 |
| 20260509131532 | 5 | 79 | 0.0 | 0.0 | 0.13 | 0.18 | 0.18 | 93 | 1012.4 |
| 20260509130036 | 5 | 79 | 0.0 | 1.6 | 0.15 | 0.15 | 0.15 | 92 | 1012.5 |
| 20260509124534 | 5 | 64 | 0.0 | 1.6 | 0.10 | 0.10 | 0.10 | 91 | 1012.7 |
| 20260509123024 | 5 | 64 | 0.0 | 0.0 | 0.08 | 0.08 | 0.08 | 90 | 1012.9 |
| 20260509121526 | 5 | 63 | 0.0 | 0.0 | 0.03 | 0.03 | 0.03 | 86 | 1012.7 |
| 20260509120022 | 5 | 64 | 0.0 | 1.6 | 0.00 | 0.00 | 0.00 | 84 | 1012.8 |
| 20260509114519 | 5 | 63 | 0.0 | 1.6 | 0.00 | 0.00 | 0.00 | 84 | 1013.0 |
| 20260509113016 | 4 | 63 | 0.0 | 1.6 | 0.00 | 0.00 | 0.00 | 83 | 1013.0 |
| 20260509111513 | 3 | 62 | 0.0 | 3.2 | 0.00 | 0.00 | 0.00 | 85 | 1013.1 |
| 20260509110010 | 3 | 41 | 0.0 | 0.0 | 0.00 | 0.00 | 0.00 | 87 | 1013.0 |
| 20260509104510 | 2 | 44 | 0.0 | 4.8 | 0.00 | 0.00 | 0.00 | 86 | 1012.9 |
| 20260509103003 | 2 | 308 | 0.0 | 0.0 | 0.00 | 0.00 | 0.00 | 88 | 1012.9 |
| 20260509101502 | 1 | 8 | 0.0 | 1.6 | 0.00 | 0.00 | 0.00 | 88 | 1012.4 |
| 20260509100057 | 1 | 44 | 0.0 | 1.6 | 0.00 | 0.00 | 0.00 | 88 | 1012.6 |
| 20260509094605 | 1 | 88 | 0.0 | 1.6 | 0.00 | 0.00 | 0.00 | 88 | 1012.7 |
| 20260509093054 | 1 | 91 | 0.0 | 0.0 | 0.00 | 0.00 | 0.00 | 89 | 1012.9 |
| 20260509091556 | 0 | 76 | 0.0 | 3.2 | 0.00 | 0.00 | 0.00 | 90 | 1012.9 |
| 20260509090100 | 0 | 49 | 0.0 | 3.2 | 0.00 | 0.00 | 0.00 | 90 | 1012.9 |
| 20260509084554 | 0 | 57 | 0.0 | 1.6 | 0.00 | 0.00 | 0.00 | 91 | 1013.1 |
| 20260509083056 | 0 | 61 | 0.0 | 1.6 | 0.00 | 0.00 | 0.00 | 91 | 1013.1 |
| 20260509081546 | 0 | 57 | 0.0 | 3.2 | 0.00 | 0.00 | 0.00 | 91 | 1013.0 |
| 20260509080047 | 0 | 65 | 0.0 | 1.6 | 0.00 | 0.00 | 0.00 | 90 | 1013.1 |
| 20260509074546 | 0 | 65 | 0.0 | 3.2 | 0.00 | 0.00 | 0.00 | 90 | 1013.1 |
| 20260509073040 | 0 | 68 | 0.0 | 1.6 | 0.00 | 0.00 | 0.00 | 90 | 1013.1 |
| 20260509071543 | 0 | 84 | 0.0 | 1.6 | 0.00 | 0.00 | 0.00 | 90 | 1012.9 |
| 20260509070037 | 0 | 6 | 0.0 | 1.6 | 0.00 | 0.00 | 0.00 | 89 | 1013.0 |
| 20260509064536 | 0 | 53 | 0.0 | 1.6 | 0.00 | 0.00 | 0.00 | 89 | 1013.1 |
| 20260509063034 | 0 | 37 | 0.0 | 1.6 | 0.00 | 0.00 | 0.00 | 89 | 1013.3 |
| 20260509061533 | 0 | 1 | 0.0 | 3.2 | 0.00 | 0.00 | 0.00 | 88 | 1013.3 |
| 20260509060030 | 0 | 49 | 0.0 | 4.8 | 0.00 | 0.00 | 0.00 | 88 | 1013.5 |
| 20260509054532 | 0 | 29 | 0.0 | 4.8 | 0.00 | 0.00 | 0.00 | 88 | 1013.7 |
| 20260509053038 | 0 | 58 | 0.0 | 3.2 | 0.00 | 0.00 | 0.00 | 88 | 1013.8 |
| 20260509051525 | 0 | 74 | 1.6 | 4.8 | 0.00 | 0.00 | 0.00 | 88 | 1013.9 |
| 20260509050023 | 0 | 32 | 0.0 | 3.2 | 0.00 | 0.00 | 0.00 | 87 | 1014.1 |
| 20260509044521 | 0 | 99 | 0.0 | 3.2 | 0.00 | 0.00 | 0.00 | 87 | 1014.0 |